Location: Sternwarte_Laufen
(47.9344°N, 12.9346°E)
Time: 04:41:32
(UTC+02:00)

ISS - Pass Details

Date: 07 July 2025
Orbit: 413 x 417 km, 51.6° (Epoch: 12 July)

Event Time Altitude Azimuth Distance (km) Brightness Sun altitude
Rises 02:01:41 0° 280° (W) 2,356 0.0 -18.7°
Reaches altitude 10° 02:03:51 10° 288° (WNW) 1,494 -0.9 -18.6°
Maximum altitude 02:07:04 42° 1° (N) 611 -2.5 -18.5°
Drops below altitude 10° 02:10:16 10° 74° (ENE) 1,496 -0.6 -18.3°
Sets 02:12:27 0° 81° (E) 2,360 0.4 -18.2°
